Regional Weather Roundup
Issued by NWS

Home | Current Version | Previous Version | Graphics & Text | Print | Product List | Glossary On
Versions: 1 2 3 4 5 6 7 8 9 10 11 12 13 14 15 16 17 18 19 20 21 22 23 24 25 26 27 28 29 30 31 32 33 34 35 36 37 38 39 40 41 42 43 44 45 46 47 48 49 50
000
ASUS43 KBIS 012310
RWRND

NORTH DAKOTA REGIONAL WEATHER ROUNDUP
NATIONAL WEATHER SERVICE BISMARCK ND
600 PM CDT WED APR 01 2015

NOTE: "FAIR" INDICATES FEW OR NO CLOUDS BELOW 12,000 FEET WITH NO
SIGNIFICANT WEATHER AND/OR OBSTRUCTIONS TO VISIBILITY.


NDZ001>003-009>011-017-020000-
NORTHWEST NORTH DAKOTA

CITY           SKY/WX    TMP DP  RH WIND       PRES   REMARKS
WILLISTON      PTSUNNY   51  22  31 W24G39    29.67R
MINOT          PTSUNNY   55  25  31 W28G35    29.58R
MINOT AFB      PTSUNNY   53  30  40 NW23G31   29.57R
$$

NDZ018>021-031>035-040>046-020000-
SOUTHWEST NORTH DAKOTA

CITY           SKY/WX    TMP DP  RH WIND       PRES   REMARKS
BISMARCK       PTSUNNY   60  29  30 NW21G30   29.64R
DICKINSON      SUNNY     51  18  27 W26G36    29.67R
GARRISON         N/A     55  26  32 NW28G39   29.61R
HETTINGER ARPT MOSUNNY   56  13  18 W31G38    29.72R
$$

NDZ004>008-012>016-024-026-027-054-020000-
NORTHEAST NORTH DAKOTA

CITY           SKY/WX    TMP DP  RH WIND       PRES   REMARKS
GRAND FORKS    PTSUNNY   60  44  55 NW21      29.43R
GRND FRKS AFB  PTSUNNY   60  44  55 W12       29.45R
DEVILS LAKE    MOSUNNY   54  37  54 NW26G37   29.51R
$$

NDZ022-023-025-028>030-036>039-047>053-020000-
SOUTHEAST NORTH DAKOTA

CITY           SKY/WX    TMP DP  RH WIND       PRES   REMARKS
FARGO          MOSUNNY   66  41  40 NW26G36   29.48R
JAMESTOWN      MOSUNNY   62  31  31 NW26G35   29.53R
$$




USA.gov is the U.S. government's official web portal to all federal, state and local government web resources and services.